Location: Ballingbuur
(53.0000°N, 5.7667°E)
Time: 06:34:40
(UTC+00:00)

Cosmos 1937 Rocket - Pass Details

Date: 29 November 2020
Orbit: 745 x 781 km, 74.0° (Epoch: 23 January)

Event Time Altitude Azimuth Distance (km) Brightness Sun altitude
Rises 05:03:58 0° 190° (S) 3,182 6.7 -20.2°
Reaches altitude 10° 05:06:20 10° 187° (S) 2,265 6.0 -19.9°
Maximum altitude 05:11:21 57° 109° (ESE) 886 4.1 -19.1°
Drops below altitude 10° 05:16:27 10° 32° (NNE) 2,301 6.2 -18.4°
Sets 05:18:52 0° 29° (NNE) 3,237 7.0 -18.0°
